TimeICT,TemperatureF,Dew PointF,Humidity,Sea Level PressureIn,VisibilityMPH,Wind Direction,Wind SpeedMPH,Gust SpeedMPH,PrecipitationIn,Events,Conditions,WindDirDegrees,DateUTC
12:00 AM,80.6,68.0,65,29.83,5.0,Calm,Calm,-,N/A,,Unknown,0,2012-11-03 17:00:00
1:00 AM,78,70,70,29.85,5,Calm,Calm,,,,Mist,,2012-11-03 18:00:00
1:00 AM,78.8,69.8,74,29.83,5.0,Calm,Calm,-,N/A,,Unknown,0,2012-11-03 18:00:00
3:00 AM,77.0,71.6,83,29.80,5.6,Calm,Calm,-,N/A,,Unknown,0,2012-11-03 20:00:00
4:00 AM,75.2,71.6,89,29.80,5.6,Calm,Calm,-,N/A,,Unknown,0,2012-11-03 21:00:00
5:00 AM,73.4,71.6,94,29.83,5.6,Calm,Calm,-,N/A,,Unknown,0,2012-11-03 22:00:00
6:00 AM,73.4,71.6,94,29.83,5.0,Calm,Calm,-,N/A,,Unknown,0,2012-11-03 23:00:00
6:30 AM,73.4,69.8,88,29.83,5.0,Calm,Calm,-,N/A,,Unknown,0,2012-11-03 23:30:00
7:00 AM,74,71,86,29.86,6,NE,2.3,,,,Mist,50,2012-11-04 00:00:00
7:00 AM,75.2,69.8,83,29.83,5.6,NE,2.3,-,N/A,,Unknown,50,2012-11-04 00:00:00
8:00 AM,78.8,71.6,78,29.86,6.2,NE,3.5,-,N/A,,Unknown,40,2012-11-04 01:00:00
9:00 AM,80.6,71.6,74,29.89,6.2,NE,3.5,-,N/A,,Unknown,50,2012-11-04 02:00:00
10:00 AM,86.0,73.4,66,29.86,6.2,NNE,3.5,-,N/A,,Unknown,30,2012-11-04 03:00:00
11:00 AM,89.6,71.6,55,29.83,6.2,North,4.6,-,N/A,,Scattered Clouds,350,2012-11-04 04:00:00
12:00 PM,89.6,68.0,49,29.80,6.2,NW,2.3,-,N/A,,Scattered Clouds,310,2012-11-04 05:00:00
1:00 PM,91,69,38,29.79,6,East,2.3,,,,Partly Cloudy,80,2012-11-04 06:00:00
1:00 PM,91.4,68.0,46,29.77,6.2,East,2.3,-,N/A,,Scattered Clouds,80,2012-11-04 06:00:00
2:00 PM,93.2,69.8,46,29.74,6.2,North,2.3,-,N/A,,Scattered Clouds,350,2012-11-04 07:00:00
3:00 PM,91.4,69.8,49,29.74,6.2,NNW,2.3,-,N/A,,Scattered Clouds,330,2012-11-04 08:00:00
4:00 PM,91.4,68.0,46,29.74,6.2,NNW,3.5,-,N/A,,Scattered Clouds,340,2012-11-04 09:00:00
5:00 PM,91.4,68.0,46,29.74,6.2,NW,2.3,-,N/A,,Scattered Clouds,310,2012-11-04 10:00:00
5:30 PM,91.4,68.0,46,29.74,5.6,NW,2.3,-,N/A,,Unknown,310,2012-11-04 10:30:00
6:00 PM,87.8,66.2,49,29.74,5.6,NNW,2.3,-,N/A,,Unknown,330,2012-11-04 11:00:00
7:00 PM,86,69,47,29.76,6,NNE,2.3,,,,Haze,30,2012-11-04 12:00:00
7:00 PM,86.0,69.8,58,29.74,5.6,NNE,2.3,-,N/A,,Unknown,30,2012-11-04 12:00:00
8:00 PM,84.2,69.8,62,29.80,5.6,NNE,2.3,-,N/A,,Unknown,20,2012-11-04 13:00:00
9:00 PM,82.4,71.6,70,29.80,5.6,North,1.2,-,N/A,,Unknown,10,2012-11-04 14:00:00
10:00 PM,80.6,71.6,74,29.83,5.6,NNE,2.3,-,N/A,,Unknown,30,2012-11-04 15:00:00
11:00 PM,78.8,71.6,78,29.83,5.6,North,1.2,-,N/A,,Unknown,10,2012-11-04 16:00:00